TimeEST,TemperatureF,Dew PointF,Humidity,Sea Level PressureIn,VisibilityMPH,Wind Direction,Wind SpeedMPH,Gust SpeedMPH,PrecipitationIn,Events,Conditions,WindDirDegrees,DateUTC
12:53 AM,37.9,14.0,38,30.07,10.0,WNW,8.1,-,N/A,,Clear,290,2012-01-29 05:53:00
1:53 AM,37.0,10.9,34,30.10,10.0,Variable,4.6,-,N/A,,Clear,0,2012-01-29 06:53:00
2:53 AM,36.0,9.0,33,30.12,10.0,WNW,5.8,-,N/A,,Clear,290,2012-01-29 07:53:00
3:53 AM,35.1,10.0,35,30.13,10.0,Variable,3.5,-,N/A,,Clear,0,2012-01-29 08:53:00
4:53 AM,34.0,10.0,37,30.15,10.0,Variable,5.8,-,N/A,,Clear,0,2012-01-29 09:53:00
5:53 AM,33.1,10.0,38,30.16,10.0,Variable,4.6,-,N/A,,Clear,0,2012-01-29 10:53:00
6:53 AM,32.0,10.0,40,30.17,10.0,West,3.5,-,N/A,,Clear,280,2012-01-29 11:53:00
7:53 AM,33.1,10.9,40,30.19,10.0,Calm,Calm,-,N/A,,Clear,0,2012-01-29 12:53:00
8:53 AM,36.0,10.9,36,30.19,10.0,WNW,9.2,-,N/A,,Clear,290,2012-01-29 13:53:00
9:53 AM,37.9,12.9,36,30.19,10.0,West,9.2,-,N/A,,Clear,280,2012-01-29 14:53:00
10:53 AM,39.0,14.0,36,30.19,10.0,West,10.4,-,N/A,,Clear,280,2012-01-29 15:53:00
11:53 AM,41.0,15.8,36,30.15,10.0,West,8.1,-,N/A,,Clear,260,2012-01-29 16:53:00
12:53 PM,42.1,14.0,32,30.13,10.0,Variable,6.9,-,N/A,,Clear,0,2012-01-29 17:53:00
1:53 PM,43.0,15.1,32,30.09,10.0,Variable,6.9,-,N/A,,Clear,0,2012-01-29 18:53:00
2:53 PM,44.1,14.0,30,30.08,10.0,Variable,5.8,-,N/A,,Clear,0,2012-01-29 19:53:00
3:53 PM,43.0,12.9,30,30.08,10.0,SW,6.9,-,N/A,,Clear,230,2012-01-29 20:53:00
4:53 PM,42.1,12.9,31,30.08,10.0,Variable,4.6,-,N/A,,Clear,0,2012-01-29 21:53:00
5:53 PM,39.0,12.9,34,30.08,10.0,SSW,4.6,-,N/A,,Clear,210,2012-01-29 22:53:00
6:53 PM,33.1,15.1,48,30.08,10.0,Calm,Calm,-,N/A,,Clear,0,2012-01-29 23:53:00
7:53 PM,32.0,15.1,50,30.08,10.0,Calm,Calm,-,N/A,,Clear,0,2012-01-30 00:53:00
8:53 PM,28.0,18.0,66,30.06,10.0,Calm,Calm,-,N/A,,Clear,0,2012-01-30 01:53:00
9:53 PM,27.0,19.0,72,30.04,9.0,Calm,Calm,-,N/A,,Clear,0,2012-01-30 02:53:00
10:53 PM,28.4,21.2,74,30.03,10.0,Calm,Calm,-,N/A,,Overcast,0,2012-01-30 03:53:00
11:53 PM,30.0,21.9,72,30.05,10.0,Calm,Calm,-,N/A,,Overcast,0,2012-01-30 04:53:00